Weather History for KMLU - May, 2014

Change the Weather History Date:

Friday, May 2, 2014

  Actual Average Record
Temperature  
Mean Temperature 64 °F 70 °F  
Max Temperature 77 °F 82 °F 91 °F (2002)
Min Temperature 51 °F 59 °F 45 °F (1976)
Degree Days  
Heating Degree Days 1 1  
Month to date heating degree days 9 2  
Since 1 July heating degree days 2825 2226  
Cooling Degree Days 0 6  
Month to date cooling degree days 0 12  
Year to date cooling degree days 88 159  
Growing Degree Days 13 (Base 50)    
Moisture  
Dew Point 45 °F    
Average Humidity 55    
Maximum Humidity 83    
Minimum Humidity 27    
Precipitation  
Precipitation 0.00 in 0.17 in 1.46 in (1973)
Month to date precipitation 0.00 0.33  
Year to date precipitation 17.15 19.19  
Snow  
Snow 0.00 in - - ()
Month to date snowfall 0.0  
Since 1 July snowfall 0.5  
Snow Depth 0.00 in    
Sea Level Pressure  
Sea Level Pressure 30.02 in    
Wind  
Wind Speed 2 mph (WNW)    
Max Wind Speed 12 mph    
Max Gust Speed 16 mph    
Visibility 9 miles    
Events      
T = Trace of Precipitation, MM = Missing Value Source: NWS Daily Summary

Daily Weather History Graph

Daily Weather History Graph

Search for Another Location

Airport or City:

Trip Planner

Search our weather history database for the weather conditions in past years. The results will help you decide how hot, cold, wet, or windy it might be!

Date:

Astronomy

May. 02, 2014 Rise Set
Actual Time 6:20 AM CDT 7:50 PM CDT
Civil Twilight 5:54 AM CDT 8:16 PM CDT
Nautical Twilight 5:22 AM CDT 8:47 PM CDT
Astronomical Twilight 4:50 AM CDT 9:20 PM CDT
Moon 9:01 AM CDT 11:09 PM CDT
Length of Visible Light 14h 22m
Length of Day
13h 29m
Waxing Crescent, 12% of the Moon is Illuminated
May 2
Waxing Crescent
May 6
First Quarter
May 14
Full
May 21
Last Quarter
May 28
New

Hourly Weather History & Observations

Time (CDT) Temp. Dew Point Humidity Pressure Visibility Wind Dir Wind Speed Gust Speed Precip Events Conditions
12:53 AM 55.0 °F 48.9 °F 80% 30.05 in 10.0 mi Calm Calm - N/A   Clear
1:53 AM 55.0 °F 48.9 °F 80% 30.04 in 10.0 mi Calm Calm - N/A   Clear
2:53 AM 55.9 °F 46.9 °F 72% 30.03 in 10.0 mi Calm Calm - N/A   Clear
3:53 AM 55.9 °F 46.9 °F 72% 30.02 in 10.0 mi North 3.5 mph - N/A   Clear
4:53 AM 54.0 °F 48.0 °F 80% 30.01 in 10.0 mi Calm Calm - N/A   Clear
5:53 AM 51.1 °F 46.0 °F 83% 30.01 in 10.0 mi Calm Calm - N/A   Clear
6:53 AM 53.1 °F 46.9 °F 80% 30.05 in 10.0 mi Calm Calm - N/A   Clear
7:53 AM 60.1 °F 46.9 °F 62% 30.06 in 10.0 mi Calm Calm - N/A   Clear
8:22 AM 60.8 °F 46.4 °F 59% 30.07 in 10.0 mi Calm Calm - N/A   Partly Cloudy
8:53 AM 63.0 °F 45.0 °F 52% 30.06 in 10.0 mi Calm Calm - N/A   Clear
9:13 AM 64.4 °F 46.4 °F 52% 30.07 in 1.5 mi Calm Calm - N/A   Haze
9:21 AM 64.4 °F 46.4 °F 52% 30.07 in 10.0 mi ENE 3.5 mph - N/A   Clear
9:29 AM 64.4 °F 42.8 °F 45% 30.07 in 1.0 mi Calm Calm - N/A   Haze
9:42 AM 64.4 °F 42.8 °F 45% 30.07 in 10.0 mi Calm Calm - N/A   Clear
9:53 AM 66.9 °F 45.0 °F 45% 30.07 in 10.0 mi Calm Calm - N/A   Clear
10:10 AM 66.2 °F 44.6 °F 46% 30.07 in 1.0 mi Calm Calm - N/A   Haze
10:19 AM 68.0 °F 44.6 °F 43% 30.07 in 10.0 mi Calm Calm - N/A   Clear
10:53 AM 69.1 °F 43.0 °F 39% 30.07 in 10.0 mi SSE 3.5 mph - N/A   Clear
11:53 AM 71.1 °F 39.9 °F 32% 30.05 in 10.0 mi Variable 3.5 mph - N/A   Clear
12:53 PM 73.9 °F 37.0 °F 26% 30.02 in 10.0 mi Variable 3.5 mph - N/A   Clear
1:53 PM 75.0 °F 39.0 °F 27% 30.00 in 10.0 mi NW 6.9 mph - N/A   Clear
2:53 PM 75.9 °F 42.1 °F 30% 29.99 in 10.0 mi WSW 10.4 mph - N/A   Clear
3:53 PM 75.9 °F 41.0 °F 29% 29.96 in 10.0 mi Variable 4.6 mph - N/A   Partly Cloudy
4:53 PM 72.0 °F 39.0 °F 30% 29.96 in 10.0 mi WNW 3.5 mph - N/A   Scattered Clouds
5:53 PM 75.0 °F 42.1 °F 31% 29.95 in 10.0 mi Calm Calm - N/A   Partly Cloudy
6:53 PM 71.6 °F 42.8 °F 35% 29.94 in 10.0 mi SE 3.5 mph - N/A   Partly Cloudy
7:53 PM 64.9 °F 46.9 °F 52% 29.95 in 10.0 mi Calm Calm - N/A   Clear
8:53 PM 60.1 °F 50.0 °F 69% 29.96 in 10.0 mi Calm Calm - N/A   Partly Cloudy
9:53 PM 57.0 °F 46.9 °F 69% 29.98 in 10.0 mi Calm Calm - N/A   Clear
10:53 PM 55.9 °F 46.9 °F 72% 30.00 in 10.0 mi Calm Calm - N/A   Clear
11:53 PM 55.9 °F 48.0 °F 75% 30.00 in 10.0 mi Calm Calm - N/A   Clear